This demonstration page uses our WeatherBlox Daily Observations layout. Learn more.

Left ArrowRight Arrow

39.92423, -83.80882

Hourly Observations for July 22, 2022

Temp ( °F °C ) Dew Point ( °F °C ) Humidity (%) Winds ( mph kmh ) Pressure ( in mb ) Visibility ( mi km ) Precip ( " mm )
12:56 am 00:56 Clear 70 21 N/A N/A SW 6 9 29.89 1012 10 16 0.00 0.00
1:56 am 01:56 Clear 70 21 N/A N/A SW 6 9 29.90 1013 10 16 0.00 0.00
2:56 am 02:56 Clear 66 19 N/A N/A SW 3 6 29.90 1013 10 16 0.00 0.00
3:56 am 03:56 Clear 66 19 N/A N/A SW 6 9 29.91 1013 10 16 0.00 0.00
4:56 am 04:56 Clear 66 19 N/A N/A SW 7 11 29.91 1013 10 16 0.00 0.00
5:56 am 05:56 Clear 66 19 N/A N/A SW 3 6 29.92 1013 10 16 0.00 0.00
6:05 am 06:05 Mostly Clear N/A N/A N/A SW 3 6 N/A 10 16 0.00 0.00
6:56 am 06:56 Sunny 68 20 N/A N/A SW 5 7 29.93 1014 10 16 0.00 0.00
7:56 am 07:56 Sunny 72 22 N/A N/A SW 3 6 29.94 1014 10 16 0.00 0.00
8:56 am 08:56 Sunny 76 24.4 75 23.9 97 97 SSW 5 7 29.96 1014 10 16 0.00 0.00
9:56 am 09:56 Sunny 80 26.7 73 22.8 79 79 W 9 15 29.96 1015 10 16 0.00 0.00
10:56 am 10:56 Mostly Sunny 83 28.3 74 23.3 74 74 W 9 15 29.97 1015 10 16 0.00 0.00
11:56 am 11:56 Mostly Sunny 85 29.4 74 23.3 70 70 WNW 12 19 29.98 1015 10 16 0.00 0.00
12:56 pm 12:56 Sunny 86 30 72 22.2 63 63 NW 14 22 29.99 1016 10 16 0.00 0.00
1:56 pm 13:56 Sunny 86 30 70 21.1 59 59 WNW 12 19 29.98 1015 10 16 0.00 0.00
2:56 pm 14:56 Sunny 86 30 67 19.4 53 53 WNW 12 19 29.99 1016 10 16 0.00 0.00
3:56 pm 15:56 Sunny 87 30.6 67 19.4 51 51 NW 10 17 29.99 1016 10 16 0.00 0.00
4:56 pm 16:56 Sunny 87 30.6 65 18.3 48 48 WNW 9 15 29.99 1016 10 16 0.00 0.00
5:56 pm 17:56 Sunny 87 30.6 64 17.8 46 46 NW 6 9 30.00 1016 10 16 0.00 0.00
6:56 pm 18:56 Sunny 86 30 63 17.2 46 46 NW 5 7 30.00 1016 10 16 0.00 0.00
7:56 pm 19:56 Sunny 84 28.9 69 20.6 61 61 Calm 30.00 1016 10 16 0.00 0.00
8:56 pm 20:56 Sunny 75 23.9 75 23.9 100 100 Calm 30.01 1016 10 16 0.01 0.25
9:27 pm 21:27 Mostly Clear 73 23 73 23 100 100 Calm 30.00 1016 10 16 0.00 0.00
9:56 pm 21:56 Clear 72 22 N/A N/A W 3 6 30.03 1017 10 16 0.10 2.54
10:56 pm 22:56 Clear 70 21 N/A N/A SW 3 6 30.04 1017 10 16 0.00 0.00
11:56 pm 23:56 Clear 68 20 N/A N/A Calm 30.04 1017 10 16 0.00 0.00

Powered by AerisWeather